Regional Weather Roundup
Issued by NWS

Home | Current Version | Previous Version | Text Only | Print | Product List | Glossary Off
Versions: 1 2 3 4 5 6 7 8 9 10 11 12 13 14 15 16 17 18 19 20 21 22 23 24 25 26 27 28 29 30 31 32 33 34 35 36 37 38 39 40 41 42 43 44 45 46 47 48 49 50

000
ASUS43 KMKX 310411
RWRWI

WISCONSIN REGIONAL WEATHER ROUNDUP
NATIONAL WEATHER SERVICE MILWAUKEE/SULLIVAN WI
1100 PM CDT WED JUL 30 2014

NOTE: "FAIR" INDICATES FEW OR NO CLOUDS BELOW 12,000 FEET WITH NO
SIGNIFICANT WEATHER AND/OR OBSTRUCTIONS TO VISIBILITY.

WIZ001-002-006>008-014>016-023>028-310500-
NORTHWEST WISCONSIN

CITY           SKY/WX    TMP DP  RH WIND       PRES   REMARKS
SUPERIOR ARPT  PTCLDY    64  58  82 W5        29.98S
ASHLAND        PTCLDY    61  60  97 W5        29.98S
HAYWARD        LGT RAIN  64  61  90 CALM      30.01R
SIREN          CLEAR     63  57  79 W5        30.02S
RICE LAKE      CLEAR     60  58  93 CALM      30.03R FOG
LADYSMITH      MOCLDY    62  60  93 E3        30.03R
EAU CLAIRE     CLEAR     62  61  96 SW5       30.01S
MENOMONIE      CLEAR     66  58  76 W5        30.02S
NEW RICHMOND   CLEAR     61  56  83 W6        30.03F
OSCEOLA        CLEAR     63  59  85 W3        30.05S
$$

WIZ003>005-009-010-017-018-310500-
NORTH CENTRAL WISCONSIN

CITY           SKY/WX    TMP DP  RH WIND       PRES   REMARKS
WOODRUFF       PTCLDY    57  49  74 CALM      30.00S
RHINELANDER    CLEAR     52  51  97 CALM      30.01S
EAGLE RIVER    FOG       51  51 100 CALM      30.00S VSB<1/4
LAND O LAKES   FOG       53  53  99 CALM      30.01S VSB 1/4
PHILLIPS       MOCLDY    59  58  94 CALM      30.00S
TOMAHAWK       FOG       54  52  95 CALM      30.01S VSB 1/2
MEDFORD        LGT RAIN  60  58  91 SW3       30.02R
MERRILL        CLEAR     58  58 100 CALM      30.00R FOG
$$

WIZ029-030-035-036-043>047-310500-
CENTRAL WISCONSIN

CITY           SKY/WX    TMP DP  RH WIND       PRES   REMARKS
WAUSAU         PTCLDY    63  59  87 N5        29.99R
MOSINEE        PTCLDY    61  59  94 W6        30.01S
MARSHFIELD     LGT RAIN  61  58  90 W6        30.02R FOG
STEVENS POINT  PTCLDY    61  58  91 W5        30.01S
WAUPACA        PTCLDY    66  57  73 N6        30.00S
WAUTOMA        MOCLDY    63  56  78 CALM      30.00F
WISC RAPIDS    MOCLDY    64  59  83 W9        30.02S
CAMP DOUGLAS   MOCLDY    66  63  88 W6        30.02S
$$

WIZ011>013-019>022-031-037>040-048>050-310500-
NORTHEAST WISCONSIN

CITY           SKY/WX    TMP DP  RH WIND       PRES   REMARKS
ANTIGO         CLEAR     54  53  95 CALM      30.01S
STURGEON BAY   CLOUDY    61  54  77 SW7       29.97S
GREEN BAY      MOCLDY    60  59  96 SW6       29.98F
MANITOWOC      LGT RAIN  61  54  77 W7        29.99F
APPLETON       PTCLDY    63  55  77 VRB5      30.00R
CLINTONVILLE   PTCLDY    57  54  88 CALM      29.99F
OSHKOSH        MOCLDY    66  55  67 SW6       29.98F
$$

WIZ032>034-041-042-053>061-310500-
SOUTHWEST WISCONSIN

CITY           SKY/WX    TMP DP  RH WIND       PRES   REMARKS
LA CROSSE      CLEAR     68  62  81 SE5       30.02S
SPARTA         CLOUDY    63  61  94 CALM      30.03F
VIROQUA        FAIR      64  60  88 SW5       30.05S
BOSCOBEL       MOCLDY    62  60  93 SW3       30.04F
PRAIRIE DU CHI PTCLDY    64  59  86 CALM      30.04S
PLATTEVILLE    FAIR      65  58  79 CALM      30.07R
$$

WIZ056-057-062-063-064-067-068-310500-
SOUTH CENTRAL WISCONSIN

CITY           SKY/WX    TMP DP  RH WIND       PRES   REMARKS
BARABOO/DELLS  PTCLDY    61  53  75 SW3       30.03S
LONE ROCK      PTCLDY    63  57  81 CALM      30.03F
WATERTOWN      CLEAR     62  54  74 CALM      30.02S
MADISON        CLEAR     63  52  67 CALM      30.03F
MIDDLETON      FAIR      58  55  91 CALM      30.04S
MONROE         CLEAR     66  54  63 W7        30.05S
JANESVILLE     CLEAR     61  57  88 CALM      30.04S
$$

WIZ051-052-058>065-066-070>072-310500-
SOUTHEAST WISCONSIN

CITY           SKY/WX    TMP DP  RH WIND       PRES   REMARKS
MILWAUKEE      MOCLDY    62  54  74 S3        30.02S
WAUKESHA       CLEAR     57  52  82 CALM      30.03S
MILWAUKEE/TIMM CLEAR     61  54  77 SW3       30.03S
RACINE         CLEAR     59  54  83 SW7       30.04S
BURLINGTON     CLEAR     54  53  95 CALM      30.03S
KENOSHA        CLEAR     60  56  86 S5        30.04S
FOND DU LAC    PTCLDY    63  55  75 SW6       30.00F
SHEBOYGAN      PTCLDY    57  53  86 S3        29.99F
WEST BEND      PTCLDY    63  52  67 W5        30.01S
JUNEAU         CLEAR     60  51  71 SW3       30.03S
$$

LSZ147-162-310500-
LAKE SUPERIOR

STATION/POSITION TIME  TEMP    WIND        PRES    WAVE
                       AIR SEA DIR/SP/G            HT/PER
                 (UTC) (F)     (DEG/KT/KT) (MB)    (FT/S)
W MID LAKE BUOY  0350   52 42  240/  4/  4 1014.5F   1/ 4
PORT WING        0340   65     180/  3/  4 1014.9R
SAXON HARBOR     0300          180/  4/  5 1014.9R
$$

LMZ867-665-643>646-310500-
LAKE MICHIGAN

STATION/POSITION TIME  TEMP    WIND        PRES    WAVE
                       AIR SEA DIR/SP/G            HT/PER
                 (UTC) (F)     (DEG/KT/KT) (MB)    (FT/S)
N MID LAKE BUOY  0350   57 54  210/  8/ 10 1013.9F   1
NORTHPORT PIER   0300   60     230/  4/  4 1014.6S
SISTER BAY       0310   63        CALM       N/A
ALGOMA LAKESHORE 0321          250/  9/ 11   N/A
KEWAUNEE LAKESHO 0300   62     250/  4/  8 1014.6F
SHEBOYGAN LAKESH 0400   63     190/ 10/ 10 1015.7F
PORT WASHINGTON  0300   62     220/  1/  2 1016.6S
ATWATER BUOY     0400   64     200/  8     1017.4R
MILWAUKEE LAKESH 0300   65     180/  7/  8   N/A
S MID LAKE BUOY  0350   61 61  210/  6/  8 1017.0R   0
KENOSHA   LAKESH 0400   62     200/  5/  8 1016.6S
$$

TC  - TEMPERATURE IN CELSIUS
VSB - VISIBILITY IN STATUTE MILES
WCI - WIND CHILL INDEX
HX  - HEAT INDEX



USA.gov is the U.S. government's official web portal to all federal, state and local government web resources and services.